Regional Weather Roundup
Issued by NWS

Home | Current Version | Previous Version | Graphics & Text | Print | Product List | Glossary On
Versions: 1 2 3 4 5 6 7 8 9 10 11 12 13 14 15 16 17 18 19 20 21 22 23 24 25 26 27 28 29 30 31 32 33 34 35 36 37 38 39 40 41 42 43 44 45 46 47 48 49 50
847
ASUS44 KJAN 021503
RWRMS

MISSISSIPPI HOURLY WEATHER ROUNDUP
NATIONAL WEATHER SERVICE JACKSON MS
900 AM CST MON MAR 02 2015

NOTE: "FAIR: INDICATES FEW OR NO CLOUDS BELOW 12,000 FEET WITH NO
SIGNIFICANT WEATHER AND/OR OBSTRUCTIONS TO VISIBILITY.

MSZ001>002-007>008-010>013-018>021-025>028-034>036-021600-
NORTHWEST MISSISSIPPI

CITY           SKY/WX    TMP DP  RH WIND       PRES   REMARKS
CLARKSDALE     CLOUDY    36  36 100 N9        30.44R WCI  29
CLEVELAND      CLOUDY    37  37 100 NE13      30.41F WCI  28
GREENWOOD        N/A    N/A N/A N/A MISG      30.38S
GREENVILLE     CLOUDY    38  35  89 NE16      30.39F FOG     WCI  29
OLIVE BRANCH   CLOUDY    34  34 100 NE12G23   30.45R WCI  25
OXFORD         CLOUDY    36  34  93 NE12      30.43S FOG     WCI  27
TUNICA         PTSUNNY   36  32  87 NE15G21   30.44F WCI  26
$$

MSZ003>006-009-014>017-022>024-029>033-037>039-021600-
NORTHEAST MISSISSIPPI

CITY           SKY/WX    TMP DP  RH WIND       PRES   REMARKS
COLUMBUS AFB   RAIN      45  45 100 N8        30.37S FOG
CORINTH        CLOUDY    36  34  93 NE7G17    30.45R FOG     WCI  30
GOLDN TRIANGLE CLOUDY    45  43  93 N12       30.36S FOG
STARKVILLE     DRIZZLE   43  43 100 N6        30.38R
TUPELO         CLOUDY    40  37  89 NE15      30.42R WCI  32
$$

MSZ040-058-021600-
CENTRAL MISSISSIPPI

CITY           SKY/WX    TMP DP  RH WIND       PRES   REMARKS
JACKSON INTL   CLOUDY    50  49  96 N7        30.33R FOG
JACKSON HAWKNS CLOUDY    48  46  93 N5        30.33R FOG
MERIDIAN KEY   CLOUDY    55  54  96 NE6       30.34R FOG
MERIDIAN NAS   CLOUDY    54  53  97 NE7       30.35S FOG
VICKSBURG      CLOUDY    43  42  97 N10       30.37R FOG
$$

MSZ059>079-021600-
SOUTH MISSISSIPPI

CITY           SKY/WX    TMP DP  RH WIND       PRES   REMARKS
BROOKHAVEN     CLOUDY    57  57 100 N3        30.32R
HATTIESBURG    FOG       59  59 100 E5        30.31R VSB 1/2
MCCOMB         CLOUDY    61  60  97 E3        30.29R FOG
NATCHEZ        CLOUDY    46  45  93 N9        30.33R VSB 1/2
PINE BELT      CLOUDY    59  55  88 E5        30.32R VSB 1/4
$$

MSZ080>082-021600-
COASTAL MISSISSIPPI

CITY           SKY/WX    TMP DP  RH WIND       PRES   REMARKS
BAY ST LOUIS   FOG       61  57  88 CALM      30.30R VSB 1/2
BILOXI         CLOUDY    63  63 100 E5        30.29R FOG
PASCAGOULA     FOG       62  62 100 SE8       30.30R VSB 1/4
GULFPORT       FOG       62  61  96 E5        30.29R VSB 1/4
$$



USA.gov is the U.S. government's official web portal to all federal, state and local government web resources and services.